Brno, Czech Republic

11:12 AM CEST on May 25, 2017 (GMT +0200)
Turany

Weather History for LKTB - October, 2011

Change the Weather History Date:

Monday, October 17, 2011

  Actual Average Record
Temperature  
Mean Temperature 40 °F -  
Max Temperature 52 °F 50 °F - ()
Min Temperature 28 °F 37 °F - ()
Degree Days  
Heating Degree Days 25    
Moisture  
Dew Point 26 °F    
Average Humidity 58    
Maximum Humidity 80    
Minimum Humidity 26    
Precipitation  
Precipitation 0.00 in 0.05 in - ()
Sea Level Pressure  
Sea Level Pressure 30.32 in    
Wind  
Wind Speed 4 mph ()    
Max Wind Speed 9 mph    
Max Gust Speed -    
Visibility 18.0 miles    
Events      
T = Trace of Precipitation, MM = Missing Value Source: Averaged Metar Reports

Daily Weather History Graph

Daily Weather History Graph

Search for Another Location

Airport or City:

Trip Planner

Search our weather history database for the weather conditions in past years. The results will help you decide how hot, cold, wet, or windy it might be!

Date:

Astronomy

Oct. 17, 2011 Rise Set
Actual Time 7:16 AM CEST 6:00 PM CEST
Civil Twilight 6:44 AM CEST 6:32 PM CEST
Nautical Twilight 6:07 AM CEST 7:09 PM CEST
Astronomical Twilight 5:30 AM CEST 7:45 PM CEST
Moon 9:01 PM CEST (10/17) 12:31 PM CEST (10/17)
Length of Visible Light 11h 48m
Length of Day
10h 43m
Waning Gibbous, 76% of the Moon is Illuminated
Oct 17
Waning Gibbous
Oct 20
Last Quarter
Oct 26
New
Nov 2
First Quarter
Nov 10
Full

Hourly Weather History & Observations

Time (CEST) Temp. Windchill Dew Point Humidity Pressure Visibility Wind Dir Wind Speed Gust Speed Precip Events Conditions
12:00 AM 33.8 °F 28.6 °F 24.8 °F 70% 30.42 in - NE 5.8 mph - N/A   Clear
12:30 AM 32.0 °F 27.5 °F 24.8 °F 75% 30.39 in - NE 4.6 mph - N/A   Clear
1:00 AM 32.0 °F 27.5 °F 26.6 °F 80% 30.39 in - NE 4.6 mph - N/A   Clear
1:30 AM 33.8 °F - 26.6 °F 75% 30.39 in - NE 2.3 mph - N/A   Clear
2:00 AM 32 °F - 26 °F 69% 30.45 in 16 mi Calm Calm - -  
2:00 AM 32.0 °F - 24.8 °F 75% 30.39 in - Calm Calm - N/A   Clear
2:30 AM 32.0 °F - 26.6 °F 80% 30.39 in - ENE 2.3 mph - N/A   Clear
3:00 AM 32.0 °F 28.7 °F 26.6 °F 80% 30.36 in - NE 3.5 mph - N/A   Clear
3:30 AM 32.0 °F - 26.6 °F 80% 30.36 in - Variable 1.2 mph - N/A   Clear
4:00 AM 32.0 °F - 26.6 °F 80% 30.36 in - NE 2.3 mph - N/A   Clear
4:30 AM 30.2 °F 25.4 °F 24.8 °F 80% 30.36 in - NE 4.6 mph - N/A   Clear
5:00 AM 30.2 °F 25.4 °F 24.8 °F 80% 30.36 in - ENE 4.6 mph - N/A   Clear
5:30 AM 30.2 °F 25.4 °F 24.8 °F 80% 30.36 in - ENE 4.6 mph - N/A   Clear
6:00 AM 30.2 °F 24.3 °F 24.8 °F 80% 30.36 in - ENE 5.8 mph - N/A   Clear
6:30 AM 30.2 °F 25.4 °F 24.8 °F 80% 30.36 in - ENE 4.6 mph - N/A   Clear
7:00 AM 30.2 °F 23.4 °F 24.8 °F 80% 30.33 in - ENE 6.9 mph - N/A   Clear
7:30 AM 30.2 °F 23.4 °F 24.8 °F 80% 30.33 in - ENE 6.9 mph - N/A   Clear
8:00 AM 31 °F - 25 °F 69% 30.42 in 19 mi WNW 4.5 mph - -  
8:00 AM 32.0 °F 28.7 °F 26.6 °F 80% 30.36 in - East 3.5 mph - N/A   Clear
8:30 AM 33.8 °F 30.8 °F 26.6 °F 75% 30.36 in - ENE 3.5 mph - N/A   Clear
9:00 AM 35.6 °F 32.8 °F 28.4 °F 75% 30.36 in - ENE 3.5 mph - N/A   Clear
9:30 AM 37.4 °F - 28.4 °F 70% 30.36 in - Variable 2.3 mph - N/A   Clear
10:00 AM 41.0 °F 39.0 °F 26.6 °F 57% 30.36 in - East 3.5 mph - N/A   Clear
10:30 AM 42.8 °F 41.1 °F 28.4 °F 57% 30.36 in - ESE 3.5 mph - N/A   Clear
11:00 AM 44.6 °F 42.2 °F 26.6 °F 49% 30.36 in - ESE 4.6 mph - N/A   Clear
11:30 AM 46.4 °F 42.4 °F 26.6 °F 46% 30.33 in - SE 8.1 mph - N/A   Clear
12:00 PM 48.2 °F - 28.4 °F 46% 30.33 in - SSE 8.1 mph - N/A   Clear
12:30 PM 48.2 °F - 26.6 °F 43% 30.33 in - South 8.1 mph - N/A   Clear
1:00 PM 50.0 °F - 26.6 °F 40% 30.33 in - SSE 8.1 mph - N/A   Clear
1:30 PM 50.0 °F - 26.6 °F 40% 30.30 in - South 8.1 mph - N/A   Clear
2:00 PM 51 °F - 27 °F 26% 30.32 in 19 mi South 8.9 mph - -  
2:00 PM 51.8 °F - 26.6 °F 38% 30.30 in - SSE 8.1 mph - N/A   Clear
2:30 PM 51.8 °F - 26.6 °F 38% 30.27 in - SSE 9.2 mph - N/A   Clear
3:00 PM 51.8 °F - 24.8 °F 35% 30.27 in - South 9.2 mph - N/A   Clear
3:30 PM 53.6 °F - 24.8 °F 33% 30.27 in - SSE 6.9 mph - N/A   Clear
4:00 PM 53.6 °F - 23.0 °F 30% 30.27 in - SSE 6.9 mph - N/A   Clear
4:30 PM 51.8 °F - 23.0 °F 33% 30.24 in - SSE 6.9 mph - N/A   Clear
5:00 PM 50.0 °F - 24.8 °F 37% 30.24 in - South 8.1 mph - N/A   Clear
5:30 PM 50.0 °F - 24.8 °F 37% 30.24 in - SSW 6.9 mph - N/A   Clear
6:00 PM 46.4 °F 44.3 °F 26.6 °F 46% 30.24 in - SSW 4.6 mph - N/A   Clear
6:30 PM 44.6 °F 43.1 °F 26.6 °F 49% 30.24 in - South 3.5 mph - N/A   Clear
7:00 PM 44.6 °F - 26.6 °F 49% 30.24 in - Variable 2.3 mph - N/A   Clear
7:30 PM 44.6 °F - 26.6 °F 49% 30.24 in - SE 2.3 mph - N/A   Clear
8:00 PM 45 °F - 26 °F 34% 30.27 in 25 mi ESE 2.2 mph - -  
8:00 PM 44.6 °F - 26.6 °F 49% 30.24 in - Variable 2.3 mph - N/A   Clear
8:30 PM 44.6 °F 42.2 °F 26.6 °F 49% 30.24 in - NE 4.6 mph - N/A   Clear
9:00 PM 42.8 °F 40.1 °F 26.6 °F 53% 30.24 in - NE 4.6 mph - N/A   Clear
9:30 PM 42.8 °F 40.1 °F 26.6 °F 53% 30.24 in - NE 4.6 mph - N/A   Clear
10:00 PM 41.0 °F 37.1 °F 26.6 °F 57% 30.24 in - NE 5.8 mph - N/A   Clear
10:30 PM 41.0 °F 37.1 °F 26.6 °F 57% 30.21 in - NE 5.8 mph - N/A   Clear
11:00 PM 41.0 °F 37.1 °F 26.6 °F 57% 30.21 in - NE 5.8 mph - N/A   Clear
11:30 PM 39.2 °F 35.0 °F 26.6 °F 61% 30.21 in - NE 5.8 mph - N/A   Clear